Selinsgrove, PA

9:55 AM EST on February 21, 2017 (GMT -0500)
Penn Valley

Weather History for KSEG - August, 2012

Change the Weather History Date:

Wednesday, August 22, 2012

  Actual Average (KIPT) Record (KIPT)
Temperature  
Mean Temperature 70 °F -  
Max Temperature 82 °F 78 °F 98 °F (1916)
Min Temperature 57 °F 59 °F 42 °F (1941)
Cooling Degree Days 4    
Growing Degree Days 20 (Base 50)    
Moisture  
Dew Point 59 °F    
Average Humidity 87    
Maximum Humidity 100    
Minimum Humidity 49    
Precipitation  
Precipitation 0.00 in - - ()
Sea Level Pressure  
Sea Level Pressure 30.14 in    
Wind  
Wind Speed 0 mph (SSE)    
Max Wind Speed 5 mph    
Max Gust Speed -    
Visibility 4 miles    
Events Fog    
Averages and records for this station are not official NWS values.
T = Trace of Precipitation, MM = Missing Value Source: NWS Daily Summary

Daily Weather History Graph

Daily Weather History Graph

Search for Another Location

Airport or City:

Trip Planner

Search our weather history database for the weather conditions in past years. The results will help you decide how hot, cold, wet, or windy it might be!

Date:

Astronomy

Aug. 22, 2012 Rise Set
Actual Time 6:24 AM EDT 7:54 PM EDT
Civil Twilight 5:56 AM EDT 8:23 PM EDT
Nautical Twilight 5:21 AM EDT 8:58 PM EDT
Astronomical Twilight 4:44 AM EDT 9:34 PM EDT
Moon 12:04 PM EDT (8/22) 10:31 PM EDT (8/22)
Length of Visible Light 14h 27m
Length of Day
13h 29m
Waxing Crescent, 29% of the Moon is Illuminated
Aug 22
Waxing Crescent
Aug 24
First Quarter
Aug 31
Full
Sep 8
Last Quarter
Sep 15
New

Hourly Weather History & Observations

Time (EDT) Temp. Heat Index Dew Point Humidity Pressure Visibility Wind Dir Wind Speed Gust Speed Precip Events Conditions
12:27 AM 59.0 °F - 57.2 °F 94% 30.12 in 1.8 mi Calm Calm - N/A   Clear
12:39 AM 57.2 °F - 55.4 °F 94% 30.13 in 2.0 mi Calm Calm - N/A   Clear
12:53 AM 57.9 °F - 55.9 °F 93% 30.12 in 2.5 mi Calm Calm - N/A   Clear
12:59 AM 57.2 °F - 55.4 °F 94% 30.13 in 1.0 mi Calm Calm - N/A   Clear
1:09 AM 59.0 °F - 57.2 °F 94% 30.13 in 2.0 mi Calm Calm - N/A   Clear
1:30 AM 59.0 °F - 57.2 °F 94% 30.13 in 3.0 mi Calm Calm - N/A   Clear
1:39 AM 57.2 °F - 57.2 °F 100% 30.12 in 2.5 mi Calm Calm - N/A   Clear
1:53 AM 57.9 °F - 55.9 °F 93% 30.12 in 3.0 mi Calm Calm - N/A   Clear
2:03 AM 57.2 °F - 57.2 °F 100% 30.12 in 2.5 mi Calm Calm - N/A   Clear
2:53 AM 57.9 °F - 57.0 °F 97% 30.11 in 2.0 mi Calm Calm - N/A   Scattered Clouds
3:02 AM 59.0 °F - 57.2 °F 94% 30.12 in 3.0 mi Calm Calm - N/A   Scattered Clouds
3:11 AM 59.0 °F - 57.2 °F 94% 30.12 in 2.5 mi Calm Calm - N/A   Mostly Cloudy
3:42 AM 57.2 °F - 55.4 °F 94% 30.13 in 2.5 mi Calm Calm - N/A   Scattered Clouds
3:53 AM 57.9 °F - 55.9 °F 93% 30.12 in 2.5 mi Calm Calm - N/A   Partly Cloudy
4:45 AM 57.2 °F - 55.4 °F 94% 30.13 in 1.0 mi Calm Calm - N/A   Mist
4:53 AM 57.9 °F - 55.9 °F 93% 30.13 in 1.0 mi Calm Calm - N/A   Mist
5:02 AM 59.0 °F - 57.2 °F 94% 30.13 in 1.5 mi Calm Calm - N/A   Overcast
5:32 AM 59.0 °F - 57.2 °F 94% 30.13 in 1.0 mi Calm Calm - N/A   Overcast
5:41 AM 59.0 °F - 57.2 °F 94% 30.13 in 1.5 mi Calm Calm - N/A   Overcast
5:53 AM 59.0 °F - 57.9 °F 96% 30.13 in 0.8 mi Calm Calm - N/A   Overcast
6:53 AM 60.1 °F - 59.0 °F 96% 30.15 in 0.2 mi Calm Calm - N/A Fog Fog
7:53 AM 59.0 °F - 57.9 °F 96% 30.17 in 0.2 mi Calm Calm - N/A Fog Fog
8:53 AM 61.0 °F - 60.1 °F 97% 30.17 in 0.2 mi Calm Calm - N/A Fog Fog
9:29 AM 62.6 °F - 60.8 °F 94% 30.18 in 1.0 mi Calm Calm - N/A   Overcast
9:43 AM 62.6 °F - 60.8 °F 94% 30.18 in 1.2 mi Calm Calm - N/A   Overcast
9:53 AM 63.0 °F - 62.1 °F 97% 30.18 in 1.8 mi Calm Calm - N/A   Overcast
10:11 AM 64.4 °F - 62.6 °F 94% 30.18 in 2.0 mi Calm Calm - N/A   Mostly Cloudy
10:16 AM 66.2 °F - 62.6 °F 88% 30.18 in 3.0 mi Calm Calm - N/A   Scattered Clouds
10:53 AM 71.1 °F - 62.1 °F 73% 30.18 in 6.0 mi Calm Calm - N/A   Haze
11:53 AM 75.9 °F - 62.1 °F 62% 30.17 in 8.0 mi Calm Calm - N/A   Clear
12:53 PM 79.0 °F - 63.0 °F 58% 30.15 in 10.0 mi Calm Calm - N/A   Clear
2:53 PM 78.1 °F - 63.0 °F 60% 30.12 in 10.0 mi Calm Calm - N/A   Clear
3:53 PM 81.0 °F 81.9 °F 62.1 °F 52% 30.12 in 10.0 mi SSW 4.6 mph - N/A   Clear
4:53 PM 82.0 °F 82.7 °F 61.0 °F 49% 30.11 in 10.0 mi SE 4.6 mph - N/A   Clear
5:53 PM 81.0 °F 81.7 °F 61.0 °F 50% 30.09 in 10.0 mi SE 3.5 mph - N/A   Clear
6:53 PM 75.9 °F - 64.0 °F 67% 30.09 in 10.0 mi Calm Calm - N/A   Clear
7:53 PM 69.1 °F - 66.0 °F 90% 30.11 in 6.0 mi Calm Calm - N/A   Clear
8:53 PM 66.0 °F - 63.0 °F 90% 30.12 in 6.0 mi Calm Calm - N/A   Clear
9:53 PM 64.0 °F - 62.1 °F 93% 30.14 in 4.0 mi Calm Calm - N/A   Clear
10:53 PM 62.1 °F - 61.0 °F 96% 30.14 in 3.0 mi Calm Calm - N/A   Clear
11:05 PM 62.6 °F - 60.8 °F 94% 30.15 in 2.5 mi Calm Calm - N/A   Clear